Theta_e
308 308 308 308 308 308 308 303 303 304 305 305 305 305 305 306 306 309 312 313 311 309 307 307 310 311 313 314 315 321 322 332 332 330 329 328 326 326 325 323 324 325 327 337 340
308 308 308 308 308 308 304 301 301 303 304 305 305 305 305 306 311 314 313 309 307 306 307 311 312 312 311 313 313 319 322 324 327 328 328 327 326 326 327 323 323 324 328 338 338
307 307 308 308 308 306 303 302 301 301 303 304 305 305 305 308 316 314 309 307 310 308 306 311 312 310 312 312 314 318 322 322 323 325 326 328 328 328 329 325 323 323 324 333 336
305 306 307 306 307 304 301 300 300 301 303 304 305 305 305 314 319 315 309 311 311 311 314 314 311 309 312 312 313 314 317 321 322 322 323 325 326 327 327 327 324 324 324 325 328
305 304 303 302 302 302 301 300 300 301 303 304 304 305 308 318 318 310 311 312 312 313 316 315 311 310 310 312 312 313 315 316 319 322 323 324 324 324 325 326 327 326 326 325 325
305 305 306 303 301 301 301 300 301 302 304 304 304 306 316 320 311 312 311 312 313 313 312 311 311 311 311 310 309 310 312 314 315 316 317 321 323 324 324 325 327 327 326 325 324
307 307 307 304 300 300 301 300 302 303 305 304 304 312 314 313 311 311 311 310 310 311 312 312 312 311 310 311 311 311 310 312 314 315 316 317 318 321 323 324 325 328 327 326 324
309 309 309 307 304 301 301 301 302 304 306 306 306 312 314 315 310 310 309 309 310 310 310 310 311 311 311 310 311 310 310 310 313 314 316 315 317 318 318 321 324 326 327 327 326
309 308 306 307 306 304 302 301 303 305 308 306 312 313 316 313 311 310 309 310 310 310 311 311 311 310 310 310 309 310 309 309 310 311 313 314 316 317 318 319 321 323 325 327 326
304 304 306 306 306 304 302 303 310 312 312 313 314 315 316 315 311 310 310 310 310 310 312 311 310 310 309 310 311 309 309 310 311 311 311 310 312 315 317 318 320 320 321 326 326
301 304 305 305 304 304 302 310 314 315 313 318 319 317 313 311 311 310 310 310 310 309 309 309 308 308 310 311 312 312 313 314 314 313 312 311 312 313 314 314 317 319 319 321 325
304 303 305 305 303 302 303 311 310 310 310 311 312 311 311 311 310 311 311 310 310 308 308 308 308 310 310 310 311 311 311 311 313 314 312 312 312 312 313 313 315 317 319 319 323
305 304 305 303 303 303 307 314 311 311 310 311 313 312 311 310 310 311 311 310 309 308 309 308 309 310 310 309 309 309 310 310 311 312 312 312 312 311 312 313 314 316 318 320 320
307 305 304 303 310 311 313 312 311 310 311 315 312 311 310 310 310 311 311 309 309 308 309 309 309 309 309 310 310 309 311 312 313 311 310 312 312 311 311 312 313 314 316 316 317
306 306 305 304 304 310 311 311 312 312 324 314 311 310 310 309 311 312 311 310 309 309 309 309 309 309 310 312 313 313 313 314 314 313 312 311 310 311 311 312 312 312 313 315 317
305 306 305 312 311 314 312 311 312 319 324 311 311 311 310 311 312 312 312 311 310 310 310 309 309 311 312 313 314 313 313 313 313 312 314 312 312 312 310 311 312 312 314 314 315
305 306 307 306 312 312 311 311 317 323 315 312 311 311 310 310 312 312 311 310 309 310 308 308 308 309 313 313 312 311 313 319 314 312 314 312 313 312 310 311 313 313 313 314 313
305 308 309 306 310 312 311 313 321 318 313 311 310 310 311 312 311 311 311 309 311 309 308 309 311 309 313 313 311 310 315 315 318 319 319 313 314 311 311 311 315 315 314 314 315
306 311 314 313 313 312 312 317 321 315 311 310 309 311 312 312 311 311 311 312 311 311 312 311 311 311 310 310 310 310 315 316 318 317 318 314 313 312 315 317 316 315 315 315 315
305 311 315 315 313 312 312 317 316 310 309 309 309 312 313 312 312 311 311 312 312 312 311 312 314 311 310 311 311 310 312 315 317 320 317 313 312 315 319 317 315 314 314 316 318
307 315 314 312 310 312 316 317 314 311 310 310 311 312 312 312 311 311 311 311 313 312 311 312 313 313 311 311 310 311 316 316 316 316 316 315 314 320 317 315 314 314 314 316 319
309 315 312 310 309 316 316 313 312 312 310 310 311 312 313 312 311 310 311 313 312 313 314 313 314 314 313 311 311 312 315 315 318 319 317 317 315 316 314 313 314 314 315 315 317
309 313 312 311 316 312 312 311 311 312 311 309 310 311 311 311 312 313 312 312 312 313 315 314 313 315 312 310 313 314 312 312 314 314 316 317 316 315 315 314 313 314 316 317 318
310 314 313 310 309 312 312 312 311 312 313 311 311 311 311 311 311 313 311 311 312 312 314 312 314 314 315 313 312 314 313 313 313 314 315 315 315 315 316 315 315 316 316 317 315
310 312 309 310 308 309 311 312 312 311 312 311 311 309 311 312 311 310 310 311 311 313 315 315 316 314 315 315 314 313 313 312 313 313 315 313 313 311 315 316 315 315 316 316 315
306 305 305 305 309 311 311 312 310 310 310 309 311 311 309 310 310 310 310 311 311 312 313 314 316 316 316 315 314 314 313 313 313 313 315 314 315 314 314 313 313 314 313 313 314
305 306 306 306 309 308 308 310 310 308 309 309 309 308 309 309 309 309 309 310 310 312 313 309 313 315 314 314 314 312 314 316 316 315 315 316 315 315 316 314 313 312 313 312 313
Wind_Speed
19 19 20 20 20 19 19 17 16 15 15 17 18 20 21 23 27 17 7 5 6 10 12 17 12 14 16 5 4 3 6 14 19 18 22 19 15 17 12 7 5 5 3 4 27
20 20 21 21 20 20 19 18 17 16 17 18 20 22 22 23 21 12 5 4 8 11 7 9 8 10 5 6 5 6 7 17 17 15 17 17 16 18 15 10 9 7 6 7 20
21 21 21 21 21 21 20 19 18 17 18 19 21 23 22 20 6 2 6 1 5 5 5 8 17 8 6 7 10 7 19 13 16 18 20 21 19 19 17 14 9 7 9 11 9
21 22 23 23 22 21 20 20 19 19 19 19 22 23 22 2 3 7 1 2 2 6 7 11 8 5 4 7 7 17 19 18 19 20 24 26 21 23 16 15 11 8 6 3 16
22 23 25 25 24 22 20 20 19 20 19 20 21 20 10 3 6 5 0 2 8 9 12 8 5 5 7 6 11 19 17 16 19 21 24 25 25 21 22 17 17 14 9 9 14
24 25 26 25 24 23 21 19 19 19 20 22 19 13 3 5 2 5 4 9 13 8 10 11 5 9 5 6 7 8 14 16 15 18 18 20 23 23 23 16 18 14 10 9 10
26 27 28 27 26 24 21 19 19 18 20 17 12 5 5 12 1 3 7 8 12 8 5 7 9 7 9 9 8 11 11 15 14 15 18 11 17 23 17 15 19 16 11 9 8
27 27 28 29 28 25 22 19 18 18 17 13 6 2 6 1 6 8 7 11 9 10 11 14 11 4 5 7 9 8 9 6 2 9 15 8 23 23 10 13 16 14 20 19 10
29 30 32 31 29 25 22 20 17 18 14 9 4 5 6 10 6 4 7 7 10 12 10 12 3 5 6 6 5 6 8 10 15 11 10 10 23 26 15 14 14 15 17 17 14
29 33 33 33 29 22 20 19 15 15 7 5 10 4 7 7 5 4 10 7 8 7 8 7 5 6 4 4 4 8 9 10 13 5 10 14 19 18 20 20 18 16 13 15 19
33 35 35 33 24 17 19 7 1 1 3 7 6 7 15 9 5 4 5 2 9 7 6 6 5 5 11 10 10 12 15 13 15 12 13 11 17 19 13 14 17 20 20 17 19
36 35 37 30 20 11 10 3 8 8 7 12 16 16 18 4 4 10 5 3 5 7 10 6 5 8 13 13 13 10 14 15 13 9 12 13 18 19 16 16 16 13 18 21 13
37 36 35 26 15 9 9 11 11 11 3 12 10 6 3 8 9 8 2 3 6 7 8 6 11 14 16 14 15 12 14 16 19 13 13 12 15 21 20 14 15 17 9 7 11
37 37 32 25 8 8 8 9 13 10 2 6 5 4 3 6 7 15 9 4 2 7 8 6 9 14 12 12 12 15 11 15 17 13 11 5 15 14 19 21 13 14 13 10 10
38 36 27 12 13 8 12 14 11 1 3 5 6 7 3 4 5 5 16 7 7 11 7 11 10 12 11 9 15 16 15 19 15 17 13 12 7 13 7 18 15 12 18 16 12
39 32 24 4 10 12 16 15 11 1 3 5 7 6 8 7 10 4 5 5 9 11 10 10 5 4 4 8 8 12 15 16 11 9 12 15 10 19 11 18 19 14 14 17 19
38 27 14 7 5 19 15 9 1 2 3 5 5 12 11 14 16 6 1 7 5 3 5 7 8 5 4 2 5 7 4 5 4 4 15 13 12 18 11 15 13 12 15 17 17
35 14 5 8 7 12 14 2 2 9 10 11 11 11 12 15 8 11 5 6 5 5 3 3 7 5 2 6 6 9 4 4 5 4 7 19 7 10 11 13 20 21 17 16 13
32 8 5 1 3 8 3 2 1 11 11 11 14 10 9 16 11 8 7 6 5 7 3 6 6 8 13 15 12 4 3 9 5 10 4 5 11 13 10 16 21 22 24 21 23
26 7 5 5 1 5 2 3 3 10 11 9 5 6 12 12 11 9 5 5 11 16 10 6 16 5 12 12 10 7 1 2 4 3 3 5 11 5 14 16 18 20 22 24 24
4 2 2 1 2 1 1 3 13 9 6 6 8 9 10 8 10 11 8 13 13 10 10 7 2 10 10 4 13 13 2 4 4 2 3 4 2 3 8 11 15 18 20 23 20
8 1 5 1 1 2 3 10 14 12 5 5 7 5 8 9 7 12 12 7 15 8 3 3 4 10 20 20 14 12 6 3 1 3 4 4 8 6 4 7 10 17 17 22 20
6 3 5 5 1 3 7 13 14 15 6 3 4 3 2 6 5 5 11 10 9 7 4 2 3 6 9 4 4 2 10 5 5 2 7 5 5 5 2 5 9 11 17 19 19
3 4 3 2 5 6 7 6 12 8 10 13 5 6 5 6 6 7 13 8 9 2 5 6 4 7 8 13 11 14 12 13 4 2 12 11 13 17 5 3 9 13 15 16 20
2 4 4 4 5 10 10 8 10 9 6 8 6 11 8 5 12 11 10 18 14 6 4 2 5 11 17 20 21 19 20 18 16 18 13 22 19 20 9 4 4 13 11 17 28
3 4 6 5 9 8 11 6 9 9 8 9 8 11 11 9 12 18 13 12 10 9 2 5 3 5 17 18 18 20 14 16 18 17 10 11 8 19 9 8 9 17 17 17 24
7 4 3 6 7 7 6 13 12 8 1 6 10 12 13 16 15 16 14 18 18 12 4 1 3 4 5 8 12 8 3 6 8 9 6 4 7 12 11 9 11 18 20 22 17
Wind_Direction
344 342 339 337 335 333 332 331 328 327 327 328 330 328 325 323 320 322 235 251 225 283 299 301 291 263 263 225 260 310 239 238 239 242 259 283 292 301 299 311 302 298 282 169 155
345 342 338 336 333 331 330 329 324 320 320 323 325 325 325 329 319 277 221 251 292 282 294 298 301 246 218 219 223 207 232 236 246 255 262 274 285 288 310 306 301 327 333 101 143
345 341 338 335 333 330 326 324 319 316 317 320 324 326 329 333 288 103 182 350 346 308 274 281 278 286 270 224 228 233 241 252 258 267 278 282 286 308 310 312 274 276 5 334 144
344 341 338 334 331 327 324 322 318 316 316 319 324 326 331 315 17 174 357 66 330 284 264 263 239 235 251 248 260 246 245 239 254 261 275 276 292 289 294 288 286 299 326 0 320
346 343 339 334 330 326 321 317 314 313 314 317 321 329 347 244 241 159 325 304 275 252 243 247 276 271 245 255 241 258 269 265 252 242 247 267 267 271 279 285 293 296 318 319 311
349 345 338 334 330 326 320 313 310 308 311 313 315 327 256 261 82 162 283 274 251 199 327 316 317 321 299 296 287 294 291 280 274 270 263 252 259 263 261 269 271 277 285 288 289
347 343 339 336 329 322 317 310 305 304 313 315 313 314 262 245 234 257 292 336 313 295 220 270 323 2 336 322 296 320 314 301 276 275 274 299 280 253 263 255 263 277 266 259 261
338 337 335 331 327 321 313 305 299 307 314 318 313 280 253 280 262 242 3 312 323 334 308 300 269 213 262 268 290 294 283 287 313 280 258 260 271 267 281 259 262 264 267 267 258
338 337 337 332 327 321 309 301 300 302 304 303 304 197 271 178 211 57 328 289 297 294 279 276 205 207 270 267 294 244 258 259 277 258 268 235 257 264 264 265 255 254 250 264 257
342 342 336 333 330 323 303 308 302 288 300 248 259 252 272 247 109 350 285 309 312 272 275 243 210 202 247 212 244 255 267 269 265 275 250 264 261 268 253 245 246 250 251 249 258
349 343 337 333 331 323 319 350 17 332 234 244 220 238 292 325 13 311 270 316 282 348 313 312 342 275 261 266 261 277 284 290 300 322 324 301 291 292 295 302 265 241 241 248 244
351 347 340 332 326 309 303 255 22 296 301 270 270 268 267 305 282 273 313 294 355 314 306 323 280 283 324 321 320 316 308 297 287 292 296 300 293 293 294 291 292 285 245 232 225
349 348 341 331 323 293 226 271 328 357 317 299 212 229 207 186 238 266 92 341 293 310 318 324 306 320 319 314 310 305 293 297 290 290 269 284 283 293 289 276 285 288 261 260 251
345 346 342 330 318 315 261 349 351 7 298 218 159 173 195 219 245 230 194 153 284 288 287 277 291 299 302 298 304 291 300 307 313 304 273 258 279 270 293 293 292 287 283 263 251
342 343 335 336 305 315 358 349 337 337 26 174 118 151 223 220 272 287 152 169 230 258 264 252 267 272 288 349 347 314 325 310 306 298 307 275 273 279 273 285 282 278 284 292 263
338 339 332 345 302 296 331 327 308 295 262 140 157 204 215 255 288 244 224 225 220 239 247 268 319 21 21 352 326 323 320 289 297 272 271 271 253 273 266 268 281 282 284 280 276
336 336 316 271 261 344 341 321 341 238 263 56 8 1 340 293 280 240 199 275 265 306 345 340 335 319 98 336 292 337 9 332 301 242 257 261 252 252 256 258 276 296 291 281 272
336 339 319 261 314 338 329 341 278 315 19 3 358 322 285 283 11 354 318 317 333 43 5 310 319 332 125 199 244 262 170 177 288 291 301 307 274 265 303 307 1 338 320 283 289
339 3 311 209 313 322 356 319 245 326 14 357 344 326 330 358 358 353 352 323 10 41 355 312 272 317 316 316 325 294 246 221 252 259 252 228 278 276 19 7 0 349 334 330 323
335 303 337 131 262 323 25 276 312 27 359 354 311 310 337 346 347 340 306 336 357 23 18 328 308 299 319 334 307 196 213 127 200 265 297 296 304 318 2 350 345 342 337 324 317
316 248 112 125 316 340 267 284 312 338 57 1 318 297 325 347 329 321 325 325 26 343 357 10 300 298 319 275 293 307 9 61 268 233 230 294 275 32 11 346 338 325 328 318 309
319 354 172 239 358 214 287 307 343 342 35 308 303 324 13 330 323 312 304 313 336 35 11 67 264 285 285 283 294 295 44 93 130 313 244 236 273 139 112 11 342 317 322 309 304
316 268 213 229 17 315 305 349 321 347 332 279 289 18 307 291 305 297 306 302 330 40 37 25 325 305 306 264 13 63 297 264 233 208 248 268 270 271 46 22 325 317 319 295 310
296 339 7 326 6 359 343 327 326 310 329 357 270 284 287 297 302 292 308 295 315 102 160 143 218 244 263 275 289 286 275 281 262 310 274 273 280 277 242 318 310 340 297 306 294
322 18 4 314 332 312 297 294 296 339 11 6 333 330 355 338 316 295 311 316 304 312 99 220 250 232 258 271 271 268 266 273 255 254 263 273 267 272 183 189 244 271 252 273 282
14 4 344 291 291 291 277 343 342 336 340 318 296 334 335 307 288 296 297 291 273 290 332 167 280 279 279 270 268 276 297 285 291 291 12 357 6 352 194 192 215 256 272 261 260
12 347 316 287 298 345 338 340 312 306 15 297 308 314 303 285 283 293 287 281 276 281 58 155 256 280 261 321 326 305 353 326 1 351 2 356 280 321 326 215 236 251 263 265 286